When you browse on this site, cookies collect data to enhance your experience and personalize the content and advertising you see.
Visit our Privacy Policy to learn more. By continuing to use the site, you agree to this use of cookies and data.
  • In Lithuania
  • List of Countries
  • For 7 days
  • Water Temperature
  • Weather Map
  • Weather Widgets
  • user-avatar
    Login

    Hourly Weather Sumgayit

    Today, 17 August, Saturday

    Time Temperature Precipitation Wind Pressure Humidity
    00:00 +25°C° 0 mm 1 mps 735 mmHg 52%
    01:00 +24°C° 0 mm 1 mps 735 mmHg 53%
    02:00 +24°C° 0 mm 1 mps 735 mmHg 54%
    03:00 +23°C° 0 mm 1 mps 735 mmHg 57%
    04:00 +24°C° 0 mm 1 mps 735 mmHg 53%
    05:00 +24°C° 0 mm 1 mps 735 mmHg 50%
    06:00 +25°C° 0 mm 1 mps 736 mmHg 46%
    07:00 +26°C° 0 mm 1 mps 736 mmHg 41%
    08:00 +28°C° 0 mm 2 mps 736 mmHg 36%
    09:00 +30°C° 0 mm 3 mps 736 mmHg 30%
    10:00 +31°C° 0 mm 3 mps 736 mmHg 29%
    11:00 +33°C° 0 mm 4 mps 736 mmHg 27%
    12:00 +34°C° 0 mm 5 mps 736 mmHg 26%
    13:00 +34°C° 0 mm 5 mps 736 mmHg 25%
    14:00 +34°C° 0 mm 5 mps 735 mmHg 25%
    15:00 +34°C° 0 mm 4 mps 735 mmHg 25%
    16:00 +33°C° 0 mm 4 mps 735 mmHg 25%
    17:00 +32°C° 0 mm 4 mps 735 mmHg 25%
    18:00 +31°C° 0 mm 3 mps 735 mmHg 26%
    19:00 +30°C° 0 mm 3 mps 735 mmHg 27%
    20:00 +29°C° 0 mm 2 mps 735 mmHg 29%
    21:00 +28°C° 0 mm 2 mps 735 mmHg 31%
    22:00 +28°C° 0 mm 2 mps 736 mmHg 32%
    23:00 +27°C° 0 mm 2 mps 736 mmHg 32%

    Tomorrow, 18 August, Sunday

    Time Temperature Precipitation Wind Pressure Humidity
    00:00 +27°C° 0 mm 3 mps 736 mmHg 33%
    01:00 +26°C° 0 mm 2 mps 736 mmHg 33%
    02:00 +26°C° 0 mm 2 mps 736 mmHg 33%
    03:00 +26°C° 0 mm 2 mps 736 mmHg 33%
    04:00 +26°C° 0 mm 2 mps 736 mmHg 34%
    05:00 +26°C° 0 mm 2 mps 736 mmHg 36%
    06:00 +26°C° 0 mm 2 mps 736 mmHg 37%
    07:00 +28°C° 0 mm 2 mps 737 mmHg 33%
    08:00 +30°C° 0 mm 3 mps 737 mmHg 30%
    09:00 +31°C° 0 mm 3 mps 737 mmHg 27%
    10:00 +33°C° 0 mm 3 mps 737 mmHg 24%
    11:00 +34°C° 0 mm 3 mps 737 mmHg 21%
    12:00 +35°C° 0 mm 4 mps 737 mmHg 18%
    13:00 +35°C° 0 mm 4 mps 737 mmHg 18%
    14:00 +35°C° 0 mm 4 mps 736 mmHg 19%
    15:00 +35°C° 0 mm 4 mps 736 mmHg 19%
    16:00 +35°C° 0 mm 4 mps 736 mmHg 18%
    17:00 +34°C° 0 mm 4 mps 736 mmHg 17%
    18:00 +34°C° 0 mm 3 mps 736 mmHg 16%
    19:00 +31°C° 0 mm 3 mps 736 mmHg 19%
    20:00 +30°C° 0 mm 2 mps 737 mmHg 23%
    21:00 +28°C° 0 mm 1 mps 737 mmHg 26%
    22:00 +28°C° 0 mm 1 mps 737 mmHg 27%
    23:00 +27°C° 0 mm 1 mps 737 mmHg 29%

    Day after tomorrow, 19 August, Monday

    Time Temperature Precipitation Wind Pressure Humidity
    00:00 +26°C° 0 mm 1 mps 737 mmHg 30%
    01:00 +26°C° 0 mm 1 mps 737 mmHg 32%
    02:00 +25°C° 0 mm 1 mps 737 mmHg 33%
    03:00 +25°C° 0 mm 1 mps 737 mmHg 35%
    04:00 +25°C° 0 mm 1 mps 737 mmHg 35%
    05:00 +26°C° 0 mm 1 mps 738 mmHg 34%
    06:00 +27°C° 0 mm 1 mps 738 mmHg 34%
    07:00 +29°C° 0 mm 2 mps 739 mmHg 30%
    08:00 +31°C° 0 mm 3 mps 739 mmHg 26%
    09:00 +34°C° 0 mm 4 mps 740 mmHg 22%
    10:00 +35°C° 0 mm 4 mps 740 mmHg 20%
    11:00 +36°C° 0 mm 4 mps 740 mmHg 18%
    12:00 +37°C° 0 mm 5 mps 740 mmHg 16%
    13:00 +37°C° 0 mm 5 mps 740 mmHg 15%
    14:00 +37°C° 0 mm 5 mps 740 mmHg 15%
    15:00 +37°C° 0 mm 5 mps 739 mmHg 14%
    16:00 +36°C° 0 mm 5 mps 739 mmHg 15%
    17:00 +35°C° 0 mm 4 mps 739 mmHg 16%
    18:00 +34°C° 0 mm 3 mps 739 mmHg 16%
    19:00 +33°C° 0 mm 3 mps 740 mmHg 18%
    20:00 +31°C° 0 mm 3 mps 740 mmHg 21%
    21:00 +30°C° 0 mm 3 mps 740 mmHg 23%
    22:00 +29°C° 0 mm 4 mps 740 mmHg 25%
    23:00 +29°C° 0 mm 4 mps 740 mmHg 26%

    20 August, Tuesday

    Time Temperature Precipitation Wind Pressure Humidity
    00:00 +28°C° 0 mm 4 mps 740 mmHg 28%
    01:00 +28°C° 0 mm 4 mps 740 mmHg 27%
    02:00 +28°C° 0 mm 4 mps 740 mmHg 25%
    03:00 +28°C° 0 mm 3 mps 740 mmHg 24%
    04:00 +28°C° 0 mm 3 mps 740 mmHg 25%
    05:00 +28°C° 0 mm 3 mps 740 mmHg 27%
    06:00 +28°C° 0 mm 3 mps 741 mmHg 29%
    07:00 +30°C° 0 mm 3 mps 741 mmHg 27%
    08:00 +31°C° 0 mm 3 mps 741 mmHg 25%
    09:00 +34°C° 0 mm 3 mps 741 mmHg 23%
    10:00 +35°C° 0 mm 4 mps 741 mmHg 21%
    11:00 +36°C° 0 mm 4 mps 741 mmHg 20%
    12:00 +37°C° 0 mm 5 mps 741 mmHg 18%
    13:00 +37°C° 0 mm 5 mps 741 mmHg 18%
    14:00 +37°C° 0 mm 5 mps 740 mmHg 18%
    15:00 +37°C° 0 mm 5 mps 740 mmHg 18%
    16:00 +36°C° 0 mm 4 mps 740 mmHg 20%
    17:00 +35°C° 0 mm 4 mps 740 mmHg 22%
    18:00 +34°C° 0 mm 3 mps 740 mmHg 24%
    19:00 +31°C° 0 mm 2 mps 740 mmHg 26%
    20:00 +30°C° 0 mm 1 mps 740 mmHg 29%
    21:00 +29°C° 0 mm 1 mps 740 mmHg 31%
    22:00 +28°C° 0 mm 1 mps 740 mmHg 31%
    23:00 +28°C° 0 mm 1 mps 740 mmHg 31%

    21 August, Wednesday

    Time Temperature Precipitation Wind Pressure Humidity
    00:00 +27°C° 0 mm 1 mps 739 mmHg 31%
    01:00 +27°C° 0 mm 1 mps 739 mmHg 32%
    02:00 +26°C° 0 mm 1 mps 739 mmHg 32%
    03:00 +26°C° 0 mm 1 mps 739 mmHg 32%
    04:00 +26°C° 0 mm 1 mps 739 mmHg 30%
    05:00 +27°C° 0 mm 1 mps 739 mmHg 28%
    06:00 +28°C° 0 mm 1 mps 740 mmHg 26%
    07:00 +30°C° 0 mm 1 mps 740 mmHg 23%
    08:00 +32°C° 0 mm 2 mps 740 mmHg 21%
    09:00 +35°C° 0 mm 2 mps 740 mmHg 18%
    10:00 +36°C° 0 mm 3 mps 740 mmHg 18%
    11:00 +37°C° 0 mm 4 mps 740 mmHg 17%
    12:00 +39°C° 0 mm 5 mps 740 mmHg 16%
    13:00 +39°C° 0 mm 5 mps 739 mmHg 16%
    14:00 +39°C° 0 mm 5 mps 739 mmHg 16%
    15:00 +39°C° 0 mm 5 mps 739 mmHg 17%
    16:00 +36°C° 0 mm 4 mps 739 mmHg 20%
    17:00 +35°C° 0 mm 4 mps 738 mmHg 24%
    18:00 +34°C° 0 mm 3 mps 738 mmHg 28%
    19:00 +31°C° 0 mm 2 mps 738 mmHg 31%
    20:00 +30°C° 0 mm 1 mps 738 mmHg 35%
    21:00 +27°C° 0 mm 0 mps 739 mmHg 38%
    22:00 +29°C° 0 mm 1 mps 738 mmHg 39%
    23:00 +28°C° 0 mm 1 mps 738 mmHg 40%

    22 August, Thursday

    Time Temperature Precipitation Wind Pressure Humidity
    00:00 +28°C° 0 mm 1 mps 738 mmHg 41%
    01:00 +27°C° 0 mm 1 mps 738 mmHg 42%
    02:00 +26°C° 0 mm 1 mps 738 mmHg 44%
    03:00 +24°C° 0 mm 0 mps 738 mmHg 45%
    04:00 +26°C° 0 mm 1 mps 738 mmHg 42%
    05:00 +27°C° 0 mm 1 mps 738 mmHg 39%
    06:00 +28°C° 0 mm 1 mps 738 mmHg 37%
    07:00 +30°C° 0 mm 1 mps 738 mmHg 32%
    08:00 +32°C° 0 mm 1 mps 738 mmHg 27%
    09:00 +34°C° 0 mm 1 mps 738 mmHg 23%
    10:00 +36°C° 0 mm 2 mps 738 mmHg 21%
    11:00 +37°C° 0 mm 3 mps 738 mmHg 20%
    12:00 +38°C° 0 mm 4 mps 738 mmHg 18%
    13:00 +38°C° 0 mm 4 mps 738 mmHg 18%
    14:00 +37°C° 0 mm 5 mps 737 mmHg 18%
    15:00 +37°C° 0 mm 5 mps 737 mmHg 18%
    16:00 +36°C° 0 mm 4 mps 737 mmHg 20%
    17:00 +35°C° 0 mm 4 mps 737 mmHg 22%
    18:00 +34°C° 0 mm 3 mps 737 mmHg 24%
    19:00 +32°C° 0 mm 2 mps 737 mmHg 27%
    20:00 +31°C° 0 mm 2 mps 737 mmHg 29%
    21:00 +30°C° 0 mm 1 mps 737 mmHg 32%
    22:00 +29°C° 0 mm 1 mps 737 mmHg 32%
    23:00 +29°C° 0 mm 1 mps 737 mmHg 32%
    Show more